Location: Bussy-Saint-Georges
(48.8410°N, 2.7017°E)
Time: 22:20:47
(UTC+00:00)

MOS 1-B - Pass Details

Date: 18 October 2021
Orbit: 905 x 913 km, 99.4° (Epoch: 07 December)

Event Time Altitude Azimuth Distance (km) Brightness Sun altitude
Rises 17:25:23 0° 161° (SSE) 3,530 7.3 -6.0°
Reaches altitude 10° 17:27:47 10° 161° (SSE) 2,592 6.6 -6.4°
Maximum altitude 17:33:35 89° 74° (ENE) 917 4.4 -7.3°
Drops below altitude 10° 17:39:24 10° 345° (NNW) 2,604 6.9 -8.3°
Sets 17:41:49 0° 345° (NNW) 3,548 7.6 -8.7°
